Other Public Products
Issued by NWS Charleston, SC

Current Version | Previous Version | Text Only | Print | Product List | Glossary Off
Versions: 1 2 3 4 5 6 7 8 9 10 11 12 13 14 15 16 17 18 19 20 21 22 23 24 25 26 27 28 29 30 31 32 33 34 35 36 37 38 39 40 41 42 43 44 45 46 47 48 49 50

676
FPUS82 KCHS 232327
OPUCHS

TEST...KCHS/KSAV Gateway Observations...TEST
National Weather Service Charleston SC
700 PM EDT THU MAR 23 2017

NOTE: "fair" indicates few or no clouds below 12,000 feet with no
significant weather and/or obstructions to visibility.

SCZ050-WAZ558-NCZ071-TXZ119-213-PAZ071-DCZ001-FLZ074-172-MI076-
NYZ176-178-MAZ016-IL014-TNZ027-NJZ106-GAZ044-MD014-240000-

...Gateway Observations for Charleston International...

CITY           SKY/WX    TMP DP  RH WIND       PRES   REMARKS
Chas Airport   CLEAR     56  41  57 E14       30.49R
Seattle        PTSUNNY   56  33  42 S6        29.95F
Charlotte      PTCLDY    57  20  23 SE8       30.47S
Dallas DFW     MOSUNNY   84  49  29 S24G41    29.86F
Dallas Love    MOSUNNY   84  49  29 S29G38    29.89F
Philladelphia  PTCLDY    44   6  21 W9        30.53R
Wash National  PTCLDY    46  12  25 S8        30.53S
Baltimore      PTCLDY    42  15  33 SE8       30.52R
Miami          CLOUDY    75  64  68 NE14      30.19R
Detroit        CLOUDY    42  15  33 S8        30.32F
Newark         PTCLDY    43  -5  13 NW10      30.51R
Laguardia      PTCLDY    44   4  19 W8G16     30.50S
J F K          PTCLDY    42   0  17 W10       30.52R
Boston Logan   PTCLDY    37   0  21 NW9       30.45R WCI  30
Ft. Lauderdale CLOUDY    74  65  73 E21G26    30.19R
Chicago O`Hare CLOUDY    50  25  37 S14       30.11F
Chicago Midway CLOUDY    50  25  37 S15G24    30.12F
Houston Bush   MOSUNNY   80  51  36 S17G28    30.05S
Houston Hobby  MOSUNNY   77  57  50 SE14G30   30.06S
Nashville      MOSUNNY   70  42  36 SE15G22   30.23S
Atlanta        MOCLDY    63  37  38 E10       30.37S

$$

GAZ044-118-TXZ119-213-NCZ071-DCZ001-MDZ014-506-PAZ021-071-NJZ106-
NYZ176-178-MAZ106-OHZ011-021-055-MIZ076-KYZ091-ILZ014-INZ047-
MNZ060-ONZ431-240000-

...Gateway Observations for Savannah International...

CITY           SKY/WX    TMP DP  RH WIND       PRES   REMARKS
Savannah Arpt  PTCLDY    60  45  57 E15       30.46R
Atlanta        MOCLDY    63  37  38 E10       30.37S
Charlotte      PTCLDY    57  20  23 SE8       30.47S
Dallas DFW     MOSUNNY   84  49  29 S24G41    29.86F
Houston Bush   MOSUNNY   80  51  36 S17G28    30.05S
Wash National  PTCLDY    46  12  25 S8        30.53S
Wash Dulles    PTCLDY    47   8  20 S5        30.50S
Baltimore      PTCLDY    42  15  33 SE8       30.52R
Philadelphia   PTCLDY    44   6  21 W9        30.53R
Newark         PTCLDY    43  -5  13 NW10      30.51R
Laguardia      PTCLDY    44   4  19 W8G16     30.50S
J F K          PTCLDY    42   0  17 W10       30.52R
Boston         PTCLDY    37   0  21 NW9       30.45R WCI  30
Pittsburg      PTCLDY    49   0  13 S7        30.34F
Akron          PTCLDY    47  11  23 S12       30.32F
Cleveland      MOCLDY    49   9  19 S12       30.34F
Cincinnati     PTCLDY    58  29  33 S10       30.25S
Columbus       CLEAR     53  19  26 S5        30.28F
Detroit        CLOUDY    42  15  33 S8        30.32F
Chicago O`Hare CLOUDY    50  25  37 S14       30.11F
Minneapolis    LGT RAIN  38  33  82 SE12G23   29.84F WCI  30
Indianapolis   CLOUDY    55  24  30 SE10      30.21F
Toronto Canada MOCLDY    34  12  40 SE8       30.40F WCI  27

$$




USA.gov is the U.S. government's official web portal to all federal, state and local government web resources and services.